SRR902 KDEN-KLAX

Flight info

Callsign SRR902
Flight time 1h 52m
Altitude 32000
Route BAYLR6 TEHRU JASSE Q90 DNERO ANJLL4
Aircraft B77L/H-SDE1E2E3FGHIJ2J3J4J5M1RWXY/LB1D1

Departure

Time 2026-04-20 01:24
Airport Denver International Airport (KDEN)

Arrival

Time 2026-04-20 03:17
Airport Los Angeles International Airport (KLAX)
Time Latitude Longitude Altitude Speed Heading
2026-04-20 00:36 39.83083 -104.67903 5388 ft 0 kts 179°
2026-04-20 01:06 39.83068 -104.67902 5388 ft 3 kts 178°
2026-04-20 01:07 39.83044 -104.67900 5389 ft 3 kts 172°
2026-04-20 01:07 39.83026 -104.67881 5389 ft 3 kts 125°
2026-04-20 01:07 39.83019 -104.67853 5389 ft 3 kts 105°
2026-04-20 01:07 39.83017 -104.67838 5389 ft 0 kts 98°
2026-04-20 01:08 39.83016 -104.67833 5389 ft 2 kts 97°
2026-04-20 01:08 39.83015 -104.67790 5390 ft 6 kts 91°
2026-04-20 01:08 39.83014 -104.67735 5390 ft 6 kts 88°
2026-04-20 01:09 39.83014 -104.67679 5388 ft 7 kts 91°
2026-04-20 01:09 39.83013 -104.67621 5384 ft 7 kts 91°
2026-04-20 01:09 39.83013 -104.67561 5384 ft 7 kts 91°
2026-04-20 01:09 39.83012 -104.67501 5385 ft 7 kts 90°
2026-04-20 01:10 39.83012 -104.67428 5385 ft 11 kts 90°
2026-04-20 01:10 39.82960 -104.67184 5391 ft 15 kts 117°
2026-04-20 01:10 39.82938 -104.67058 5397 ft 15 kts 92°
2026-04-20 01:11 39.82937 -104.66926 5412 ft 15 kts 90°
2026-04-20 01:11 39.82936 -104.66793 5419 ft 15 kts 90°
2026-04-20 01:11 39.82935 -104.66660 5425 ft 15 kts 90°
2026-04-20 01:11 39.82935 -104.66528 5431 ft 15 kts 90°
2026-04-20 01:12 39.82934 -104.66396 5437 ft 15 kts 90°
2026-04-20 01:12 39.82942 -104.66299 5438 ft 10 kts 61°
2026-04-20 01:12 39.83002 -104.66269 5440 ft 10 kts
2026-04-20 01:12 39.83089 -104.66268 5438 ft 15 kts
2026-04-20 01:13 39.83208 -104.66266 5436 ft 20 kts
2026-04-20 01:13 39.83356 -104.66264 5433 ft 22 kts
2026-04-20 01:13 39.83517 -104.66260 5423 ft 24 kts
2026-04-20 01:13 39.83686 -104.66258 5420 ft 25 kts 359°
2026-04-20 01:14 39.83865 -104.66258 5416 ft 26 kts
2026-04-20 01:14 39.84047 -104.66256 5413 ft 26 kts
2026-04-20 01:14 39.84229 -104.66254 5410 ft 26 kts
2026-04-20 01:14 39.84409 -104.66252 5399 ft 26 kts
2026-04-20 01:15 39.84591 -104.66250 5405 ft 26 kts
2026-04-20 01:15 39.84773 -104.66247 5403 ft 26 kts
2026-04-20 01:15 39.84956 -104.66244 5393 ft 26 kts
2026-04-20 01:15 39.85138 -104.66243 5397 ft 26 kts
2026-04-20 01:16 39.85318 -104.66241 5394 ft 26 kts
2026-04-20 01:16 39.85460 -104.66239 5393 ft 14 kts
2026-04-20 01:16 39.85541 -104.66240 5392 ft 10 kts 352°
2026-04-20 01:16 39.85581 -104.66307 5383 ft 11 kts 279°
2026-04-20 01:17 39.85584 -104.66428 5389 ft 16 kts 270°
2026-04-20 01:17 39.85585 -104.66596 5384 ft 20 kts 270°
2026-04-20 01:17 39.85587 -104.66784 5384 ft 21 kts 270°
2026-04-20 01:17 39.85588 -104.66977 5385 ft 23 kts 270°
2026-04-20 01:18 39.85590 -104.67200 5380 ft 26 kts 270°
2026-04-20 01:18 39.85591 -104.67433 5386 ft 26 kts 270°
2026-04-20 01:18 39.85594 -104.67667 5384 ft 26 kts 270°
2026-04-20 01:18 39.85595 -104.67900 5384 ft 26 kts 271°
2026-04-20 01:19 39.85597 -104.68113 5384 ft 17 kts 270°
2026-04-20 01:19 39.85598 -104.68256 5379 ft 12 kts 271°
2026-04-20 01:19 39.85597 -104.68346 5378 ft 8 kts 261°
2026-04-20 01:19 39.85560 -104.68394 5378 ft 8 kts 195°
2026-04-20 01:20 39.85497 -104.68401 5381 ft 11 kts 181°
2026-04-20 01:20 39.85409 -104.68402 5380 ft 14 kts 181°
2026-04-20 01:20 39.85304 -104.68404 5381 ft 15 kts 180°
2026-04-20 01:20 39.85243 -104.68404 5377 ft 7 kts 182°
2026-04-20 01:21 39.85210 -104.68449 5381 ft 8 kts 256°
2026-04-20 01:21 39.85205 -104.68576 5377 ft 20 kts 269°
2026-04-20 01:21 39.85202 -104.68767 5366 ft 23 kts 269°
2026-04-20 01:21 39.85198 -104.68983 5359 ft 25 kts 268°
2026-04-20 01:22 39.85197 -104.69220 5354 ft 27 kts 271°
2026-04-20 01:22 39.85201 -104.69402 5346 ft 16 kts 271°
2026-04-20 01:22 39.85203 -104.69545 5341 ft 13 kts 270°
2026-04-20 01:22 39.85216 -104.69640 5341 ft 10 kts 311°
2026-04-20 01:23 39.85285 -104.69658 5341 ft 10 kts
2026-04-20 01:23 39.85475 -104.69655 5340 ft 55 kts
2026-04-20 01:23 39.86074 -104.69648 5336 ft 115 kts
2026-04-20 01:23 39.87052 -104.69636 5338 ft 163 kts
2026-04-20 01:24 39.88300 -104.69608 5469 ft 185 kts
2026-04-20 01:24 39.89624 -104.69653 5765 ft 193 kts
2026-04-20 01:24 39.90972 -104.69726 6210 ft 197 kts 348°
2026-04-20 01:24 39.92148 -104.70715 6338 ft 215 kts 299°
2026-04-20 01:25 39.92421 -104.72565 6636 ft 210 kts 251°
2026-04-20 01:25 39.91689 -104.74131 6871 ft 205 kts 215°
2026-04-20 01:25 39.90579 -104.75345 7113 ft 214 kts 217°
2026-04-20 01:25 39.89441 -104.76682 7270 ft 232 kts 219°
2026-04-20 01:26 39.88189 -104.78168 7417 ft 255 kts 220°
2026-04-20 01:26 39.86819 -104.79785 7618 ft 276 kts 220°
2026-04-20 01:26 39.85362 -104.81474 8155 ft 283 kts 219°
2026-04-20 01:26 39.83864 -104.83190 8795 ft 289 kts 219°
2026-04-20 01:27 39.82355 -104.84911 9547 ft 287 kts 220°
2026-04-20 01:27 39.80848 -104.86627 10071 ft 287 kts 220°
2026-04-20 01:27 39.79344 -104.88338 10094 ft 288 kts 220°
2026-04-20 01:27 39.77894 -104.90121 10091 ft 288 kts 232°
2026-04-20 01:28 39.77066 -104.92467 10343 ft 292 kts 254°
2026-04-20 01:28 39.76523 -104.95111 10533 ft 315 kts 253°
2026-04-20 01:28 39.75892 -104.97963 10719 ft 339 kts 253°
2026-04-20 01:28 39.75214 -105.01004 10929 ft 362 kts 253°
2026-04-20 01:29 39.74460 -105.04178 11524 ft 371 kts 250°
2026-04-20 01:29 39.73480 -105.07301 12400 ft 374 kts 247°
2026-04-20 01:29 39.72414 -105.10395 13329 ft 377 kts 246°
2026-04-20 01:29 39.71336 -105.13520 14217 ft 380 kts 247°
2026-04-20 01:30 39.70268 -105.16678 15047 ft 383 kts 248°
2026-04-20 01:30 39.69223 -105.19825 15919 ft 384 kts 248°
2026-04-20 01:30 39.68172 -105.23023 16768 ft 386 kts 249°
2026-04-20 01:30 39.67111 -105.26250 17584 ft 389 kts 249°
2026-04-20 01:31 39.66047 -105.29491 18360 ft 393 kts 249°
2026-04-20 01:31 39.64963 -105.32786 18877 ft 400 kts 248°
2026-04-20 01:31 39.63857 -105.36136 19503 ft 406 kts 249°
2026-04-20 01:31 39.62739 -105.39518 20178 ft 409 kts 249°
2026-04-20 01:32 39.61618 -105.42919 20860 ft 412 kts 249°
2026-04-20 01:32 39.60485 -105.46353 21494 ft 416 kts 249°
2026-04-20 01:32 39.59338 -105.49823 22093 ft 421 kts 249°
2026-04-20 01:32 39.58171 -105.53327 22697 ft 426 kts 250°
2026-04-20 01:33 39.57006 -105.56823 23321 ft 429 kts 250°
2026-04-20 01:33 39.55812 -105.60399 23890 ft 433 kts 250°
2026-04-20 01:33 39.54652 -105.64012 24434 ft 435 kts 252°
2026-04-20 01:33 39.53600 -105.67701 24961 ft 438 kts 253°
2026-04-20 01:34 39.52590 -105.71441 25482 ft 441 kts 254°
2026-04-20 01:34 39.51579 -105.75217 26021 ft 444 kts 254°
2026-04-20 01:34 39.50557 -105.79003 26566 ft 446 kts 254°
2026-04-20 01:34 39.49518 -105.82801 27097 ft 449 kts 254°
2026-04-20 01:35 39.48464 -105.86616 27596 ft 451 kts 254°
2026-04-20 01:35 39.47410 -105.90407 28071 ft 454 kts 254°
2026-04-20 01:35 39.46334 -105.94261 28566 ft 457 kts 254°
2026-04-20 01:35 39.45249 -105.98138 29117 ft 458 kts 254°
2026-04-20 01:36 39.44163 -106.02008 29760 ft 457 kts 253°
2026-04-20 01:36 39.43082 -106.05862 30384 ft 456 kts 253°
2026-04-20 01:36 39.42001 -106.09716 30965 ft 452 kts 253°
2026-04-20 01:36 39.40928 -106.13530 31539 ft 449 kts 253°
2026-04-20 01:37 39.39868 -106.17293 32082 ft 448 kts 254°
2026-04-20 01:37 39.38799 -106.21090 32152 ft 451 kts 254°
2026-04-20 01:37 39.36660 -106.28668 32318 ft 447 kts 254°
2026-04-20 01:38 39.34529 -106.36208 32314 ft 447 kts 253°
2026-04-20 01:38 39.32386 -106.43766 32320 ft 447 kts 253°
2026-04-20 01:39 39.30254 -106.51266 32288 ft 448 kts 253°
2026-04-20 01:39 39.28101 -106.58821 32260 ft 448 kts 253°
2026-04-20 01:40 39.25941 -106.66371 32199 ft 448 kts 253°
2026-04-20 01:40 39.23542 -106.73811 32224 ft 453 kts 241°
2026-04-20 01:41 39.19778 -106.80391 32231 ft 457 kts 236°
2026-04-20 01:41 39.15868 -106.86871 32239 ft 457 kts 236°
2026-04-20 01:42 39.13954 -106.90084 32109 ft 457 kts 236°
2026-04-20 01:42 39.12030 -106.93353 32100 ft 457 kts 237°
2026-04-20 01:42 39.08209 -106.99900 32094 ft 456 kts 237°
2026-04-20 01:43 39.04406 -107.06450 32076 ft 456 kts 236°
2026-04-20 01:43 39.00598 -107.12995 32096 ft 456 kts 236°
2026-04-20 01:44 38.96817 -107.19477 32093 ft 455 kts 236°
2026-04-20 01:44 38.93018 -107.25978 32101 ft 455 kts 236°
2026-04-20 01:45 38.89212 -107.32475 32102 ft 455 kts 236°
2026-04-20 01:45 38.86041 -107.37877 32084 ft 455 kts 236°
2026-04-20 01:46 38.81613 -107.45404 32092 ft 454 kts 235°
2026-04-20 01:46 38.77800 -107.51872 32079 ft 454 kts 236°
2026-04-20 01:47 38.74633 -107.57236 32082 ft 453 kts 235°
2026-04-20 01:47 38.70821 -107.63679 32069 ft 454 kts 235°
2026-04-20 01:48 38.67000 -107.70125 32069 ft 454 kts 235°
2026-04-20 01:48 38.63178 -107.76560 32059 ft 453 kts 234°
2026-04-20 01:49 38.59361 -107.82974 32181 ft 453 kts 234°
2026-04-20 01:49 38.55554 -107.89356 32184 ft 453 kts 234°
2026-04-20 01:50 38.51732 -107.95753 32185 ft 452 kts 234°
2026-04-20 01:50 38.47908 -108.02140 32177 ft 452 kts 234°
2026-04-20 01:51 38.44082 -108.08518 32155 ft 452 kts 234°
2026-04-20 01:51 38.40253 -108.14890 32131 ft 452 kts 234°
2026-04-20 01:52 38.36447 -108.21209 32103 ft 452 kts 234°
2026-04-20 01:52 38.32619 -108.27553 32091 ft 451 kts 234°
2026-04-20 01:53 38.28782 -108.33900 32090 ft 452 kts 234°
2026-04-20 01:53 38.24940 -108.40242 32090 ft 452 kts 234°
2026-04-20 01:54 38.21102 -108.46568 32087 ft 451 kts 233°
2026-04-20 01:54 38.17280 -108.52852 32097 ft 451 kts 233°
2026-04-20 01:55 38.13434 -108.59163 32090 ft 450 kts 233°
2026-04-20 01:55 38.09597 -108.65449 32084 ft 450 kts 233°
2026-04-20 01:56 38.05751 -108.71737 32092 ft 450 kts 233°
2026-04-20 01:56 38.01905 -108.78015 32091 ft 451 kts 233°
2026-04-20 01:57 37.98052 -108.84289 32098 ft 451 kts 233°
2026-04-20 01:57 37.94208 -108.90538 32101 ft 451 kts 233°
2026-04-20 01:58 37.90346 -108.96805 32102 ft 451 kts 233°
2026-04-20 01:58 37.86472 -109.03079 32101 ft 452 kts 232°
2026-04-20 01:59 37.82617 -109.09309 32102 ft 452 kts 232°
2026-04-20 01:59 37.78743 -109.15558 32110 ft 451 kts 232°
2026-04-20 02:00 37.74865 -109.21801 32116 ft 450 kts 232°
2026-04-20 02:00 37.71000 -109.28013 32130 ft 449 kts 232°
2026-04-20 02:01 37.67141 -109.34204 32151 ft 448 kts 232°
2026-04-20 02:01 37.63301 -109.40352 32172 ft 448 kts 232°
2026-04-20 02:02 37.59432 -109.46534 32171 ft 448 kts 232°
2026-04-20 02:02 37.55564 -109.52705 32167 ft 449 kts 232°
2026-04-20 02:03 37.51680 -109.58889 32156 ft 449 kts 232°
2026-04-20 02:03 37.47818 -109.65027 32136 ft 450 kts 232°
2026-04-20 02:04 37.43921 -109.71208 32040 ft 450 kts 232°
2026-04-20 02:04 37.40021 -109.77384 32041 ft 451 kts 232°
2026-04-20 02:05 37.36128 -109.83536 32044 ft 451 kts 231°
2026-04-20 02:05 37.32209 -109.89718 32042 ft 452 kts 231°
2026-04-20 02:06 37.28287 -109.95893 32028 ft 452 kts 231°
2026-04-20 02:06 37.24355 -110.02072 32030 ft 452 kts 231°
2026-04-20 02:07 37.20425 -110.08238 32023 ft 452 kts 231°
2026-04-20 02:07 37.16493 -110.14394 32032 ft 452 kts 231°
2026-04-20 02:08 37.12590 -110.20493 32019 ft 451 kts 231°
2026-04-20 02:08 37.08646 -110.26646 32019 ft 451 kts 231°
2026-04-20 02:09 37.04710 -110.32775 32023 ft 451 kts 231°
2026-04-20 02:09 37.00774 -110.38892 32022 ft 451 kts 231°
2026-04-20 02:10 36.96841 -110.44993 32026 ft 451 kts 231°
2026-04-20 02:10 36.92922 -110.51064 32031 ft 451 kts 230°
2026-04-20 02:11 36.88972 -110.57168 32026 ft 451 kts 230°
2026-04-20 02:11 36.85047 -110.63225 32018 ft 451 kts 230°
2026-04-20 02:12 36.81095 -110.69312 32017 ft 451 kts 230°
2026-04-20 02:12 36.77383 -110.75018 32002 ft 451 kts 230°
2026-04-20 02:13 36.73430 -110.81086 32010 ft 451 kts 230°
2026-04-20 02:13 36.69473 -110.87147 32008 ft 450 kts 230°
2026-04-20 02:14 36.65544 -110.93155 31992 ft 449 kts 230°
2026-04-20 02:14 36.61595 -110.99185 31994 ft 448 kts 230°
2026-04-20 02:15 36.57651 -111.05194 31995 ft 448 kts 230°
2026-04-20 02:15 36.53708 -111.11192 31989 ft 448 kts 230°
2026-04-20 02:16 36.49762 -111.17184 31998 ft 447 kts 230°
2026-04-20 02:16 36.45812 -111.23171 31988 ft 447 kts 230°
2026-04-20 02:17 36.41888 -111.29107 31988 ft 447 kts 230°
2026-04-20 02:17 36.37949 -111.35057 31988 ft 446 kts 230°
2026-04-20 02:18 36.33999 -111.41013 31985 ft 446 kts 230°
2026-04-20 02:18 36.30052 -111.46953 31986 ft 446 kts 230°
2026-04-20 02:19 36.26098 -111.52894 31983 ft 446 kts 230°
2026-04-20 02:19 36.22170 -111.58785 31989 ft 447 kts 230°
2026-04-20 02:20 36.18207 -111.64720 31988 ft 447 kts 230°
2026-04-20 02:20 36.14242 -111.70648 31989 ft 447 kts 230°
2026-04-20 02:21 36.08420 -111.79646 32025 ft 446 kts 236°
2026-04-20 02:22 36.05447 -111.86320 32077 ft 447 kts 245°
2026-04-20 02:22 36.03153 -111.93473 32121 ft 448 kts 247°
2026-04-20 02:23 36.00894 -112.00651 32151 ft 448 kts 247°
2026-04-20 02:23 35.98618 -112.07806 32192 ft 447 kts 246°
2026-04-20 02:24 35.96327 -112.14954 32190 ft 449 kts 246°
2026-04-20 02:24 35.94011 -112.22143 32185 ft 450 kts 246°
2026-04-20 02:25 35.91707 -112.29275 32161 ft 450 kts 246°
2026-04-20 02:25 35.89384 -112.36452 32117 ft 449 kts 246°
2026-04-20 02:26 35.87064 -112.43602 32076 ft 449 kts 246°
2026-04-20 02:26 35.84740 -112.50750 31984 ft 449 kts 246°
2026-04-20 02:27 35.82410 -112.57897 31984 ft 449 kts 246°
2026-04-20 02:27 35.80085 -112.65011 31972 ft 449 kts 246°
2026-04-20 02:28 35.77745 -112.72156 31967 ft 450 kts 246°
2026-04-20 02:28 35.75398 -112.79305 31977 ft 450 kts 246°
2026-04-20 02:29 35.73043 -112.86459 31968 ft 451 kts 246°
2026-04-20 02:29 35.70695 -112.93576 31963 ft 451 kts 246°
2026-04-20 02:30 35.68330 -113.00731 31952 ft 451 kts 246°
2026-04-20 02:30 35.65961 -113.07878 31940 ft 452 kts 246°
2026-04-20 02:31 35.63582 -113.15043 31941 ft 453 kts 246°
2026-04-20 02:31 35.61200 -113.22196 31938 ft 455 kts 246°
2026-04-20 02:32 35.58783 -113.29422 31922 ft 457 kts 246°
2026-04-20 02:32 35.56762 -113.35442 31920 ft 457 kts 246°
2026-04-20 02:33 35.54331 -113.42673 31906 ft 457 kts 246°
2026-04-20 02:33 35.51913 -113.49853 31886 ft 457 kts 245°
2026-04-20 02:34 35.49079 -113.58248 31887 ft 456 kts 245°
2026-04-20 02:34 35.47054 -113.64231 31888 ft 456 kts 245°
2026-04-20 02:35 35.44620 -113.71407 31915 ft 455 kts 245°
2026-04-20 02:35 35.42180 -113.78584 31947 ft 454 kts 245°
2026-04-20 02:36 35.39746 -113.85726 31961 ft 453 kts 245°
2026-04-20 02:36 35.37334 -113.92790 31987 ft 451 kts 245°
2026-04-20 02:37 35.34906 -113.99881 31988 ft 451 kts 245°
2026-04-20 02:37 35.32476 -114.06964 31989 ft 450 kts 245°
2026-04-20 02:38 35.30037 -114.14054 31958 ft 451 kts 245°
2026-04-20 02:38 35.27608 -114.21099 31930 ft 453 kts 245°
2026-04-20 02:39 35.25152 -114.28209 31882 ft 453 kts 245°
2026-04-20 02:39 35.22693 -114.35311 31848 ft 454 kts 245°
2026-04-20 02:40 35.20222 -114.42432 31846 ft 453 kts 245°
2026-04-20 02:40 35.17755 -114.49526 31832 ft 453 kts 245°
2026-04-20 02:41 35.15305 -114.56558 31834 ft 452 kts 245°
2026-04-20 02:41 35.12839 -114.63617 31835 ft 451 kts 245°
2026-04-20 02:42 35.10392 -114.70672 31833 ft 450 kts 245°
2026-04-20 02:42 35.07953 -114.77709 31845 ft 450 kts 245°
2026-04-20 02:43 35.05517 -114.84711 31842 ft 450 kts 245°
2026-04-20 02:43 35.03033 -114.91748 31858 ft 450 kts 243°
2026-04-20 02:44 35.00153 -114.98548 31859 ft 451 kts 239°
2026-04-20 02:44 34.97162 -115.05234 31880 ft 452 kts 239°
2026-04-20 02:45 34.94183 -115.12001 31870 ft 452 kts 240°
2026-04-20 02:45 34.91236 -115.18772 31886 ft 451 kts 240°
2026-04-20 02:46 34.88324 -115.25466 31887 ft 450 kts 240°
2026-04-20 02:46 34.85385 -115.32203 31883 ft 449 kts 240°
2026-04-20 02:47 34.82448 -115.38920 31882 ft 449 kts 240°
2026-04-20 02:47 34.79511 -115.45625 31882 ft 449 kts 241°
2026-04-20 02:48 34.76833 -115.52500 31880 ft 450 kts 245°
2026-04-20 02:48 34.74340 -115.59490 31879 ft 450 kts 245°
2026-04-20 02:49 34.71812 -115.66461 31883 ft 451 kts 245°
2026-04-20 02:49 34.69255 -115.73394 31878 ft 452 kts 245°
2026-04-20 02:50 34.66677 -115.80354 31873 ft 452 kts 245°
2026-04-20 02:50 34.64098 -115.87307 31864 ft 451 kts 245°
2026-04-20 02:51 34.61522 -115.94263 31868 ft 451 kts 245°
2026-04-20 02:51 34.58971 -116.01186 31868 ft 452 kts 245°
2026-04-20 02:52 34.56401 -116.08151 31870 ft 449 kts 245°
2026-04-20 02:52 34.55145 -116.11549 31844 ft 434 kts 245°
2026-04-20 02:52 34.53913 -116.14875 31805 ft 434 kts 245°
2026-04-20 02:52 34.52669 -116.18231 31412 ft 436 kts 245°
2026-04-20 02:53 34.51420 -116.21594 30766 ft 438 kts 244°
2026-04-20 02:53 34.50167 -116.24967 30098 ft 439 kts 244°
2026-04-20 02:53 34.48909 -116.28347 29291 ft 441 kts 245°
2026-04-20 02:53 34.47642 -116.31747 28492 ft 443 kts 245°
2026-04-20 02:54 34.46375 -116.35147 27827 ft 441 kts 245°
2026-04-20 02:54 34.45117 -116.38518 27282 ft 437 kts 245°
2026-04-20 02:54 34.43886 -116.41817 26809 ft 432 kts 245°
2026-04-20 02:54 34.42651 -116.45123 26303 ft 428 kts 245°
2026-04-20 02:55 34.41423 -116.48398 25799 ft 432 kts 245°
2026-04-20 02:55 34.40089 -116.51732 25771 ft 445 kts 243°
2026-04-20 02:55 34.38671 -116.55130 25785 ft 457 kts 243°
2026-04-20 02:55 34.37210 -116.58608 25804 ft 468 kts 243°
2026-04-20 02:56 34.35734 -116.62152 25370 ft 465 kts 244°
2026-04-20 02:56 34.34323 -116.65566 24861 ft 441 kts 244°
2026-04-20 02:56 34.32993 -116.68799 24419 ft 418 kts 244°
2026-04-20 02:56 34.31764 -116.71840 24018 ft 398 kts 244°
2026-04-20 02:57 34.30563 -116.74836 23523 ft 383 kts 244°
2026-04-20 02:57 34.29440 -116.77644 23020 ft 368 kts 244°
2026-04-20 02:57 34.28343 -116.80380 22582 ft 358 kts 244°
2026-04-20 02:57 34.27215 -116.83186 22211 ft 385 kts 244°
2026-04-20 02:58 34.26012 -116.86172 21769 ft 401 kts 243°
2026-04-20 02:58 34.24788 -116.89204 21498 ft 396 kts 243°
2026-04-20 02:58 34.23610 -116.92125 21007 ft 377 kts 243°
2026-04-20 02:58 34.22481 -116.94920 20422 ft 360 kts 243°
2026-04-20 02:59 34.21406 -116.97577 20018 ft 351 kts 242°
2026-04-20 02:59 34.20427 -117.00323 19672 ft 360 kts 248°
2026-04-20 02:59 34.19644 -117.03246 19096 ft 372 kts 251°
2026-04-20 02:59 34.18905 -117.06248 18348 ft 382 kts 250°
2026-04-20 03:00 34.18126 -117.09310 17906 ft 379 kts 250°
2026-04-20 03:00 34.17332 -117.12298 17753 ft 367 kts 249°
2026-04-20 03:00 34.16551 -117.15185 17623 ft 355 kts 249°
2026-04-20 03:00 34.15786 -117.17979 17423 ft 346 kts 249°
2026-04-20 03:01 34.15030 -117.20722 17055 ft 343 kts 249°
2026-04-20 03:01 34.14275 -117.23453 16586 ft 343 kts 249°
2026-04-20 03:01 34.13520 -117.26187 16140 ft 342 kts 249°
2026-04-20 03:01 34.12770 -117.28907 15698 ft 340 kts 249°
2026-04-20 03:02 34.12032 -117.31582 15264 ft 339 kts 249°
2026-04-20 03:02 34.11287 -117.34282 14838 ft 338 kts 249°
2026-04-20 03:02 34.10545 -117.36966 14416 ft 337 kts 249°
2026-04-20 03:02 34.09844 -117.39672 13993 ft 336 kts 250°
2026-04-20 03:03 34.09177 -117.42378 13564 ft 335 kts 251°
2026-04-20 03:03 34.08519 -117.45043 13090 ft 326 kts 250°
2026-04-20 03:03 34.07870 -117.47669 12788 ft 336 kts 250°
2026-04-20 03:03 34.07181 -117.50413 12476 ft 343 kts 249°
2026-04-20 03:04 34.06313 -117.53051 12079 ft 327 kts 243°
2026-04-20 03:04 34.05395 -117.55481 11638 ft 310 kts 242°
2026-04-20 03:04 34.04515 -117.57787 11274 ft 294 kts 243°
2026-04-20 03:04 34.03679 -117.60024 10967 ft 293 kts 243°
2026-04-20 03:05 34.02862 -117.62255 10642 ft 295 kts 244°
2026-04-20 03:05 34.02038 -117.64527 10400 ft 293 kts 244°
2026-04-20 03:05 34.01233 -117.66757 10265 ft 287 kts 244°
2026-04-20 03:05 34.00545 -117.68975 10107 ft 281 kts 255°
2026-04-20 03:06 34.00263 -117.71334 9991 ft 289 kts 261°
2026-04-20 03:06 34.00068 -117.73797 9636 ft 298 kts 262°
2026-04-20 03:06 33.99871 -117.76261 9296 ft 298 kts 262°
2026-04-20 03:06 33.99659 -117.78715 8933 ft 288 kts 261°
2026-04-20 03:07 33.99439 -117.81060 8593 ft 274 kts 261°
2026-04-20 03:07 33.99227 -117.83278 8286 ft 259 kts 260°
2026-04-20 03:07 33.99022 -117.85396 7991 ft 249 kts 260°
2026-04-20 03:07 33.98827 -117.87406 7706 ft 234 kts 260°
2026-04-20 03:08 33.98643 -117.89310 7484 ft 224 kts 259°
2026-04-20 03:08 33.98465 -117.91131 7275 ft 214 kts 259°
2026-04-20 03:08 33.98296 -117.92852 7050 ft 201 kts 259°
2026-04-20 03:08 33.98136 -117.94471 6784 ft 194 kts 259°
2026-04-20 03:09 33.97975 -117.96089 6565 ft 196 kts 259°
2026-04-20 03:09 33.97813 -117.97720 6365 ft 196 kts 259°
2026-04-20 03:09 33.97650 -117.99356 6128 ft 197 kts 259°
2026-04-20 03:09 33.97488 -118.00995 5883 ft 195 kts 259°
2026-04-20 03:10 33.97329 -118.02595 5652 ft 190 kts 259°
2026-04-20 03:10 33.97168 -118.04168 5439 ft 189 kts 259°
2026-04-20 03:10 33.97010 -118.05743 5236 ft 189 kts 260°
2026-04-20 03:10 33.96852 -118.07323 5013 ft 191 kts 260°
2026-04-20 03:11 33.96694 -118.08915 4765 ft 192 kts 259°
2026-04-20 03:11 33.96534 -118.10515 4499 ft 193 kts 259°
2026-04-20 03:11 33.96375 -118.12113 4241 ft 191 kts 260°
2026-04-20 03:11 33.96217 -118.13697 3970 ft 189 kts 259°
2026-04-20 03:12 33.96060 -118.15260 3739 ft 187 kts 260°
2026-04-20 03:12 33.95906 -118.16803 3484 ft 184 kts 259°
2026-04-20 03:12 33.95755 -118.18315 3265 ft 180 kts 261°
2026-04-20 03:12 33.95607 -118.19788 3057 ft 177 kts 261°
2026-04-20 03:13 33.95463 -118.21227 2816 ft 167 kts 260°
2026-04-20 03:13 33.95327 -118.22562 2634 ft 158 kts 261°
2026-04-20 03:13 33.95195 -118.23885 2457 ft 159 kts 261°
2026-04-20 03:13 33.95062 -118.25198 2228 ft 156 kts 262°
2026-04-20 03:14 33.94932 -118.26478 2111 ft 152 kts 262°
2026-04-20 03:14 33.94803 -118.27758 2077 ft 158 kts 262°
2026-04-20 03:14 33.94666 -118.29091 1867 ft 158 kts 261°
2026-04-20 03:14 33.94525 -118.30380 1572 ft 153 kts 262°
2026-04-20 03:15 33.94405 -118.31609 1299 ft 146 kts 262°
2026-04-20 03:15 33.94286 -118.32819 1064 ft 145 kts 262°
2026-04-20 03:15 33.94171 -118.34030 851 ft 147 kts 262°
2026-04-20 03:15 33.94046 -118.35260 678 ft 149 kts 262°
2026-04-20 03:16 33.93928 -118.36487 508 ft 147 kts 262°
2026-04-20 03:16 33.93797 -118.37712 294 ft 148 kts 263°
2026-04-20 03:16 33.93672 -118.38911 135 ft 135 kts 262°
2026-04-20 03:16 33.93572 -118.39891 127 ft 97 kts 263°
2026-04-20 03:17 33.93507 -118.40511 126 ft 50 kts 263°
2026-04-20 03:17 33.93486 -118.40688 130 ft 12 kts 248°
2026-04-20 03:17 33.93409 -118.40713 127 ft 12 kts 165°
2026-04-20 03:17 33.93374 -118.40628 126 ft 12 kts 88°
2026-04-20 03:18 33.93383 -118.40525 128 ft 12 kts 83°
2026-04-20 03:18 33.93394 -118.40423 127 ft 12 kts 82°
2026-04-20 03:18 33.93402 -118.40344 130 ft 7 kts 84°
2026-04-20 03:18 33.93380 -118.40301 125 ft 7 kts 159°
2026-04-20 03:19 33.93335 -118.40296 126 ft 6 kts 175°
2026-04-20 03:19 33.93319 -118.40295 128 ft 0 kts 174°